Birchwood, AK

4:38 AM AKST on December 18, 2017 (GMT -0900)
Birchwood

Weather History for PABV - January, 2014

Change the Weather History Date:

Thursday, January 16, 2014

  Actual Average Record
Temperature  
Mean Temperature 30 °F -  
Max Temperature 33 °F 19 °F 48 °F (2009)
Min Temperature 28 °F 7 °F -18 °F (2004)
Degree Days  
Heating Degree Days 34    
Moisture  
Dew Point 30 °F    
Average Humidity 99    
Maximum Humidity 100    
Minimum Humidity 93    
Precipitation  
Precipitation 0.09 in - - ()
Sea Level Pressure  
Sea Level Pressure 29.57 in    
Wind  
Wind Speed 4 mph (South)    
Max Wind Speed 10 mph    
Max Gust Speed -    
Visibility 6 miles    
Events      
Averages and records for this station are not official NWS values.
T = Trace of Precipitation, MM = Missing Value Source: NWS Daily Summary

Daily Weather History Graph

Daily Weather History Graph

Search for Another Location

Airport or City:

Trip Planner

Search our weather history database for the weather conditions in past years. The results will help you decide how hot, cold, wet, or windy it might be!

Date:

Astronomy

Jan. 16, 2014 Rise Set
Actual Time 9:54 AM AKST 4:21 PM AKST
Civil Twilight 8:58 AM AKST 5:17 PM AKST
Nautical Twilight 8:02 AM AKST 6:14 PM AKST
Astronomical Twilight 7:09 AM AKST 7:06 PM AKST
Moon 5:58 PM AKST (1/16) 9:22 AM AKST (1/16)
Length of Visible Light 8h 18m
Length of Day
6h 26m
Full, 100% of the Moon is Illuminated
Jan 16
Full
Jan 23
Last Quarter
Jan 30
New
Feb 6
First Quarter
Feb 14
Full

Hourly Weather History & Observations

Time (AKST) Temp. Windchill Dew Point Humidity Pressure Visibility Wind Dir Wind Speed Gust Speed Precip Events Conditions
12:16 AM 28.4 °F 23.3 °F 28.4 °F 100% 29.60 in 10.0 mi SSW 4.6 mph - N/A   Overcast
12:36 AM 28.4 °F 23.3 °F 28.4 °F 100% 29.59 in 10.0 mi SSW 4.6 mph - N/A   Overcast
12:56 AM 28.4 °F 19.7 °F 28.4 °F 100% 29.58 in 10.0 mi South 9.2 mph - N/A   Overcast
1:16 AM 28.4 °F 22.2 °F 28.4 °F 100% 29.56 in 10.0 mi SW 5.8 mph - N/A   Overcast
1:36 AM 28.4 °F 22.2 °F 28.4 °F 100% 29.55 in 10.0 mi South 5.8 mph - N/A   Overcast
1:56 AM 30.2 °F 24.3 °F 28.4 °F 93% 29.53 in 10.0 mi SSW 5.8 mph - N/A   Overcast
2:16 AM 28.4 °F 22.2 °F 28.4 °F 100% 29.52 in 10.0 mi WSW 5.8 mph - N/A   Overcast
2:36 AM 28.4 °F 22.2 °F 28.4 °F 100% 29.52 in 10.0 mi South 5.8 mph - N/A   Scattered Clouds
2:56 AM 28.4 °F 21.2 °F 28.4 °F 100% 29.50 in 10.0 mi SSW 6.9 mph - N/A   Partly Cloudy
3:16 AM 28.4 °F 21.2 °F 28.4 °F 100% 29.48 in 10.0 mi SSW 6.9 mph - N/A   Mostly Cloudy
3:36 AM 28.4 °F 24.6 °F 28.4 °F 100% 29.46 in 10.0 mi SSW 3.5 mph - N/A   Overcast
3:56 AM 28.4 °F - 28.4 °F 100% 29.45 in 10.0 mi Calm Calm - N/A   Overcast
4:16 AM 28.4 °F 23.3 °F 28.4 °F 100% 29.43 in 10.0 mi South 4.6 mph - N/A   Overcast
4:36 AM 28.4 °F 23.3 °F 28.4 °F 100% 29.42 in 10.0 mi SW 4.6 mph - N/A   Overcast
4:56 AM 28.4 °F 23.3 °F 28.4 °F 100% 29.41 in 10.0 mi SSW 4.6 mph - N/A   Overcast
5:16 AM 30.2 °F 24.3 °F 28.4 °F 93% 29.41 in 10.0 mi South 5.8 mph - N/A   Overcast
5:36 AM 30.2 °F 24.3 °F 30.2 °F 100% 29.40 in 10.0 mi South 5.8 mph - N/A   Overcast
5:56 AM 30.2 °F 22.6 °F 30.2 °F 100% 29.40 in 10.0 mi South 8.1 mph - N/A   Overcast
6:16 AM 30.2 °F 21.9 °F 30.2 °F 100% 29.41 in 8.0 mi SSW 9.2 mph - N/A   Overcast
6:36 AM 30.2 °F 21.9 °F 30.2 °F 100% 29.42 in 6.0 mi SSW 9.2 mph - N/A   Overcast
6:56 AM 30.2 °F 21.3 °F 30.2 °F 100% 29.42 in 4.0 mi SSW 10.4 mph - N/A   Overcast
7:16 AM 30.2 °F 21.9 °F 28.4 °F 93% 29.44 in 3.0 mi SSW 9.2 mph - N/A   Overcast
7:36 AM 30.2 °F 25.4 °F 30.2 °F 100% 29.44 in 1.0 mi SSE 4.6 mph - N/A   Overcast
7:56 AM 30.2 °F 26.7 °F 30.2 °F 100% 29.42 in 2.0 mi SE 3.5 mph - N/A   Overcast
8:16 AM 32.0 °F 28.7 °F 32.0 °F 100% 29.39 in 9.0 mi NNE 3.5 mph - N/A   Overcast
8:36 AM 32.0 °F - 32.0 °F 100% 29.39 in 7.0 mi Calm Calm - N/A   Mostly Cloudy
8:56 AM 32.0 °F 28.7 °F 32.0 °F 100% 29.40 in 8.0 mi NNW 3.5 mph - 0.03 in   Overcast
9:16 AM 32.0 °F - 30.2 °F 93% 29.42 in 10.0 mi Calm Calm - 0.03 in   Overcast
9:36 AM 32.0 °F 28.7 °F 32.0 °F 100% 29.45 in 10.0 mi SW 3.5 mph - 0.04 in   Overcast
9:56 AM 32.0 °F 26.4 °F 32.0 °F 100% 29.48 in 10.0 mi SSW 5.8 mph - 0.05 in   Overcast
10:16 AM 32.0 °F 25.6 °F 32.0 °F 100% 29.50 in 10.0 mi South 6.9 mph - N/A   Overcast
10:36 AM 33.8 °F 29.6 °F 33.8 °F 100% 29.53 in 10.0 mi SSW 4.6 mph - N/A   Overcast
10:56 AM 33.8 °F 29.6 °F 33.8 °F 100% 29.57 in 9.0 mi SW 4.6 mph - 0.01 in   Overcast
11:16 AM 33.8 °F - 33.8 °F 100% 29.54 in 5.0 mi Calm Calm - N/A   Overcast
11:36 AM 33.8 °F - 33.8 °F 100% 29.56 in 10.0 mi Calm Calm - N/A   Overcast
11:56 AM 33.8 °F - 33.8 °F 100% 29.57 in 3.0 mi Calm Calm - N/A   Overcast
12:16 PM 33.8 °F - 33.8 °F 100% 29.57 in 1.0 mi Calm Calm - N/A   Overcast
12:36 PM 33.8 °F - 33.8 °F 100% 29.57 in 0.2 mi Calm Calm - N/A   Overcast
12:56 PM 33.8 °F - 33.8 °F 100% 29.58 in 3.0 mi Calm Calm - N/A   Overcast
1:16 PM 33.8 °F - 33.8 °F 100% 29.58 in 10.0 mi Calm Calm - N/A   Overcast
1:36 PM 33.8 °F - 33.8 °F 100% 29.60 in 10.0 mi Calm Calm - N/A   Overcast
1:56 PM 33.8 °F - 33.8 °F 100% 29.61 in 3.0 mi Calm Calm - N/A   Overcast
2:16 PM 33.8 °F - 33.8 °F 100% 29.63 in 1.0 mi Calm Calm - N/A   Overcast
2:36 PM 33.8 °F - 33.8 °F 100% 29.64 in 1.0 mi Calm Calm - N/A   Overcast
2:56 PM 33.8 °F - 33.8 °F 100% 29.64 in 0.5 mi Calm Calm - N/A   Overcast
3:16 PM 32.0 °F 27.5 °F 30.2 °F 93% 29.63 in 0.2 mi NNE 4.6 mph - N/A   Overcast
3:36 PM 32.0 °F - 30.2 °F 93% 29.65 in 0.2 mi Calm Calm - N/A   Overcast
3:56 PM 32.0 °F 28.7 °F 30.2 °F 93% 29.66 in 0.2 mi NNE 3.5 mph - N/A   Overcast
4:16 PM 32.0 °F - 32.0 °F 100% 29.67 in 0.2 mi Calm Calm - N/A   Overcast
4:36 PM 32.0 °F 27.5 °F 32.0 °F 100% 29.67 in 0.2 mi NNE 4.6 mph - N/A   Overcast
4:56 PM 30.2 °F - 30.2 °F 100% 29.68 in 0.5 mi Calm Calm - N/A   Overcast
5:16 PM 30.2 °F - 30.2 °F 100% 29.70 in 0.5 mi Calm Calm - N/A   Overcast
5:36 PM 30.2 °F 26.7 °F 30.2 °F 100% 29.72 in 0.5 mi NNE 3.5 mph - N/A   Overcast
5:56 PM 30.2 °F 26.7 °F 30.2 °F 100% 29.72 in 0.5 mi NNE 3.5 mph - N/A   Overcast
6:16 PM 30.2 °F - 30.2 °F 100% 29.72 in 0.5 mi Calm Calm - N/A   Overcast
6:36 PM 30.2 °F 26.7 °F 30.2 °F 100% 29.71 in 0.2 mi NE 3.5 mph - N/A   Overcast
6:56 PM 30.2 °F 25.4 °F 30.2 °F 100% 29.70 in 0.5 mi NE 4.6 mph - N/A   Overcast
7:16 PM 30.2 °F - 30.2 °F 100% 29.70 in 1.5 mi Calm Calm - N/A   Overcast
7:36 PM 30.2 °F - 30.2 °F 100% 29.70 in 1.5 mi Calm Calm - N/A   Overcast
7:56 PM 30.2 °F - 30.2 °F 100% 29.71 in 2.5 mi Calm Calm - N/A   Overcast
8:16 PM 30.2 °F 25.4 °F 30.2 °F 100% 29.71 in 1.0 mi SSW 4.6 mph - N/A   Overcast
8:36 PM 30.2 °F 26.7 °F 30.2 °F 100% 29.71 in 0.8 mi South 3.5 mph - N/A   Overcast
8:56 PM 30.2 °F 26.7 °F 30.2 °F 100% 29.70 in 8.0 mi South 3.5 mph - N/A   Overcast
9:16 PM 30.2 °F 26.7 °F 28.4 °F 93% 29.71 in 10.0 mi SSE 3.5 mph - N/A   Mostly Cloudy
9:36 PM 30.2 °F 25.4 °F 28.4 °F 93% 29.69 in 10.0 mi ESE 4.6 mph - N/A   Scattered Clouds
9:56 PM 30.2 °F - 28.4 °F 93% 29.69 in 10.0 mi Calm Calm - N/A   Clear
10:16 PM 30.2 °F - 30.2 °F 100% 29.68 in 10.0 mi Calm Calm - N/A   Clear
10:36 PM 28.4 °F 24.6 °F 28.4 °F 100% 29.67 in 10.0 mi SSW 3.5 mph - N/A   Clear
10:56 PM 28.4 °F - 28.4 °F 100% 29.67 in 10.0 mi Calm Calm - N/A   Clear
11:16 PM 30.2 °F 25.4 °F 28.4 °F 93% 29.68 in 8.0 mi South 4.6 mph - N/A   Partly Cloudy
11:36 PM 30.2 °F 26.7 °F 28.4 °F 93% 29.66 in 2.5 mi SE 3.5 mph - N/A   Mostly Cloudy
11:56 PM 30.2 °F - 30.2 °F 100% 29.66 in 8.0 mi Calm Calm - N/A   Overcast